This is the latest recevied weather packets stored in our database for station/object KE8WMS. If no packets are shown the sender has not sent any weather packets the latest 10 day(s).
| Time | Temp. | Humidity | Pressure | Rain* | Wind** | Luminosity | Snow |
|---|---|---|---|---|---|---|---|
| 1787689317 | 23.33° C | 72% | 1015 hPa | 0 mm | - | 422 W/m² | - |
| 1787689012 | 22.78° C | 72% | 1015 hPa | 0 mm | - | 482 W/m² | - |
| 1787688708 | 22.78° C | 71% | 1015 hPa | 0 mm | - | 472 W/m² | - |
| 1787688409 | 23.33° C | 71% | 1015.1 hPa | 0 mm | - | 515 W/m² | - |
| 1787688109 | 22.78° C | 73% | 1015.1 hPa | 0 mm | - | 505 W/m² | - |
| 1787687805 | 23.33° C | 71% | 1015.2 hPa | 0 mm | - | 519 W/m² | - |
| 1787687499 | 23.89° C | 69% | 1015.3 hPa | 0 mm | - | 482 W/m² | - |
| 1787687195 | 23.33° C | 72% | 1015.2 hPa | 0 mm | - | 540 W/m² | - |
| 1787686891 | 23.33° C | 73% | 1015.4 hPa | 0 mm | - | 550 W/m² | - |
| 1787686587 | 23.89° C | 72% | 1015.1 hPa | 0 mm | - | 557 W/m² | - |
| 1787686282 | 23.33° C | 70% | 1015.4 hPa | 0 mm | - | 572 W/m² | - |
| 1787685978 | 23.33° C | 73% | 1015.2 hPa | 0 mm | - | 541 W/m² | - |
| 1787685673 | 23.33° C | 72% | 1015.4 hPa | 0 mm | - | 602 W/m² | - |
| 1787685372 | 23.33° C | 73% | 1015.4 hPa | 0 mm | - | 589 W/m² | - |
| 1787685067 | 23.33° C | 71% | 1015.4 hPa | 0 mm | - | 397 W/m² | - |
| 1787684763 | 23.89° C | 71% | 1015.2 hPa | 0 mm | - | 599 W/m² | - |
| 1787684462 | 23.89° C | 71% | 1015.2 hPa | 0 mm | - | 685 W/m² | - |
| 1787684157 | 23.89° C | 72% | 1015.4 hPa | 0 mm | - | 634 W/m² | - |
| 1787683856 | 23.89° C | 72% | 1015.4 hPa | 0 mm | - | 526 W/m² | - |
| 1787683552 | 23.89° C | 72% | 1015.6 hPa | 0 mm | - | 675 W/m² | - |
| 1787683247 | 22.78° C | 75% | 1015.5 hPa | 0 mm | - | 650 W/m² | - |
| 1787682944 | 22.78° C | 74% | 1015.5 hPa | 0 mm | - | 633 W/m² | - |
| 1787682640 | 23.33° C | 74% | 1015.3 hPa | 0 mm | - | 712 W/m² | - |
| 1787682336 | 23.33° C | 73% | 1015.2 hPa | 0 mm | - | 648 W/m² | - |
| 1787682032 | 23.33° C | 75% | 1015 hPa | 0 mm | - | 687 W/m² | - |
* Rain latest hour (hover to see other rain measurements)
** Current wind speed in m/s (hover to see current wind gust speed)